Home   Weather   Moreno Valley   Past weeks

Flag for USA Past Weather in Moreno Valley, California, USA — Yesterday and Last 2 Weeks

Now
54 °F

Sunny.


Feels Like: 53 °F
Forecast: 35 / 53 °F
Wind: 5 mph from North

Location: Riverside / March Air Force Base

Current Time: Feb 23, 2017 at 12:47:11 pm

Latest Report: Feb 23, 2017 at 11:58 am


Visibility: 10 mi

Pressure: 30.03 "Hg

Humidity: 34%

Dew Point: 26 °F

Location of Moreno ValleyLocation

Past Weather in Moreno Valley — Graph

°F

Moreno Valley Temperature Yesterday

Maximum temperature yesterday: 60 °F (at 2:58 pm)
Minimum temperature yesterday: 40 °F (at 11:58 pm)
Average temperature yesterday: 50 °F

High & Low Weather Summary for the Past Weeks

 TemperatureHumidityPressure
High78 °F (Feb 9, 1:58 pm)100% (Feb 8, 10:28 am)30.33 "Hg (Feb 8, 10:28 am)
Low35 °F (Feb 23, 5:58 am)20% (Feb 15, 11:58 am)29.47 "Hg (Feb 17, 6:58 pm)
Average54 °F90%29.98 "Hg
* Reported Feb 8 10:28 am — Feb 23 10:58 am, Moreno Valley, Weather by CustomWeather, © 2017

Note: Actual official high and low records may vary slightly from our data, if they occured in-between our weather recording intervals... More about our weather records

Advertising

Moreno Valley Weather History for the Previous 24 Hours

Scroll right to see more
 ConditionsComfort  
Time TempWeatherWind HumidityBarometerVisibility
10:58 am
Thu, Feb 23
53 °FSunny.3 mph39%30.04 "Hg10 mi
9:58 am51 °FSunny.6 mph43%30.05 "Hg10 mi
8:58 am47 °FSunny.No wind82%30.05 "Hg10 mi
7:58 am41 °FSunny.No wind100%30.06 "Hg10 mi
6:58 am36 °FSunny.No wind100%30.05 "Hg10 mi
5:58 am35 °FClear.No wind100%30.03 "Hg10 mi
4:58 am37 °FClear.No wind100%30.01 "Hg10 mi
3:58 am36 °FPassing clouds.No wind100%30.00 "Hg10 mi
2:58 am37 °FClear.No wind100%30.01 "Hg10 mi
1:58 am38 °FClear.No wind100%30.01 "Hg10 mi
12:58 am39 °FClear.No wind100%30.03 "Hg10 mi
11:58 pm
Wed, Feb 22
40 °FPassing clouds.No wind100%30.03 "Hg10 mi
10:58 pm43 °FClear.3 mph100%30.03 "Hg10 mi
9:58 pm45 °FClear.3 mph100%30.03 "Hg10 mi
9:33 pm46 °FPassing clouds.5 mph100%30.03 "Hg10 mi
8:58 pm46 °FPassing clouds.3 mph95%30.03 "Hg10 mi
7:58 pm47 °FPassing clouds.6 mph90%30.03 "Hg10 mi
6:58 pm50 °FOvercast.5 mph77%30.02 "Hg10 mi
5:58 pm50 °FClear.7 mph69%30.01 "Hg10 mi
4:58 pm55 °FSunny.10 mph55%30.00 "Hg10 mi
3:58 pm58 °FPartly sunny.13 mph50%30.00 "Hg10 mi
2:58 pm60 °FPartly sunny.9 mph57%30.01 "Hg10 mi
1:58 pm58 °FPartly sunny.6 mph59%30.01 "Hg10 mi
12:58 pm58 °FOvercast.6 mph66%30.03 "Hg10 mi
Weather by CustomWeather, © 2017

See weather overviewHow to use our weather pages